,

(GMT )
Al Udeid

Weather History for KQIR - July, 2013

Change the Weather History Date:

Tuesday, July 30, 2013

  Actual Average Record
Temperature  
Mean Temperature 95 °F -  
Max Temperature 107 °F - - ()
Min Temperature 83 °F - - ()
Cooling Degree Days 30    
Growing Degree Days 45 (Base 50)    
Moisture  
Dew Point 50 °F    
Average Humidity 25    
Maximum Humidity 58    
Minimum Humidity 8    
Precipitation  
Precipitation 0.00 in - - ()
Sea Level Pressure  
Sea Level Pressure 29.46 in    
Wind  
Wind Speed 13 mph ()    
Max Wind Speed 25 mph    
Max Gust Speed 32 mph    
Visibility 6.2 miles    
Events      
Averages and records for this station are not official NWS values.
T = Trace of Precipitation, MM = Missing Value Source: Averaged Metar Reports

Daily Weather History Graph

Daily Weather History Graph

Search for Another Location

Airport or City:

Trip Planner

Search our weather history database for the weather conditions in past years. The results will help you decide how hot, cold, wet, or windy it might be!

Date:

Astronomy

Jul. 30, 2013 Rise Set
Actual Time 5:01 AM +03 6:21 PM +03
Civil Twilight 4:36 AM +03 6:45 PM +03
Nautical Twilight 4:06 AM +03 7:15 PM +03
Astronomical Twilight 3:36 AM +03 7:45 PM +03
Moon 11:39 PM +03 (7/30) 12:22 PM +03 (7/30)
Length of Visible Light 14h 09m
Length of Day
13h 20m
Last Quarter, 44% of the Moon is Illuminated
Jul 30
Last Quarter
Aug 7
New
Aug 14
First Quarter
Aug 21
Full
Aug 28
Last Quarter

Hourly Weather History & Observations

Time (+03) Temp. Heat Index Dew Point Humidity Pressure Visibility Wind Dir Wind Speed Gust Speed Precip Events Conditions
12:55 AM 87.8 °F 87.9 °F 61.2 °F 41% 29.47 in 6.2 mi WNW 10.4 mph - N/A   Clear
1:55 AM 86.9 °F 88.6 °F 65.3 °F 48% 29.45 in 6.2 mi NW 11.5 mph - N/A   Clear
2:55 AM 88.5 °F 88.9 °F 61.7 °F 41% 29.44 in 6.2 mi NNW 11.5 mph - N/A   Clear
3:55 AM 83.5 °F 86.2 °F 67.1 °F 58% 29.46 in 6.2 mi West 9.2 mph - N/A   Clear
4:55 AM 83.8 °F 85.3 °F 64.4 °F 52% 29.47 in 6.2 mi West 10.4 mph - N/A   Clear
5:55 AM 85.3 °F 87.9 °F 66.7 °F 54% 29.48 in 6.2 mi West 10.4 mph - N/A   Clear
6:55 AM 90.3 °F 90.8 °F 62.4 °F 39% 29.50 in 6.2 mi WNW 16.1 mph - N/A   Clear
7:55 AM 96.4 °F 95.0 °F 56.5 °F 26% 29.51 in 6.2 mi WNW 17.3 mph - N/A   Clear
8:55 AM 100.0 °F 99.2 °F 56.8 °F 24% 29.51 in 6.2 mi NW 18.4 mph - N/A   Clear
9:55 AM 103.6 °F - 46.4 °F 14% 29.50 in 6.2 mi NNW 19.6 mph 27.6 mph N/A   Clear
10:55 AM 106.0 °F - 41.5 °F 11% 29.49 in 5.6 mi NW 20.7 mph 29.9 mph N/A   Haze
11:55 AM 106.7 °F - 38.5 °F 10% 29.47 in 6.2 mi NNW 25.3 mph 32.2 mph N/A   Scattered Clouds
12:55 PM 107.2 °F - 40.5 °F 10% 29.45 in 6.2 mi NW 20.7 mph 28.8 mph N/A   Clear
1:55 PM 107.6 °F - 36.3 °F 9% 29.44 in 6.2 mi NNW 24.2 mph 28.8 mph N/A   Clear
2:55 PM 107.1 °F - 34.7 °F 8% 29.43 in 6.2 mi NNW 25.3 mph - N/A   Clear
3:55 PM 106.0 °F - 39.6 °F 10% 29.42 in 6.2 mi NW 23.0 mph - N/A   Clear
4:55 PM 104.5 °F - 33.4 °F 9% 29.43 in 6.2 mi NNW 19.6 mph 31.1 mph N/A   Clear
5:55 PM 102.2 °F - 39.0 °F 11% 29.43 in 6.2 mi North 18.4 mph - N/A   Clear
6:55 PM 98.6 °F - 41.9 °F 14% 29.45 in 6.2 mi NNW 12.7 mph - N/A   Clear
7:55 PM 94.3 °F - 45.3 °F 19% 29.46 in 6.2 mi NW 6.9 mph - N/A   Clear
8:55 PM 91.2 °F - 45.3 °F 20% 29.47 in 6.2 mi WNW 5.8 mph - N/A   Clear
9:55 PM 88.0 °F - 46.4 °F 24% 29.47 in 6.2 mi West 6.9 mph - N/A   Clear
10:55 PM 86.7 °F - 49.5 °F 28% 29.47 in 6.2 mi West 8.1 mph - N/A   Clear
11:55 PM 85.8 °F - 51.4 °F 30% 29.45 in 6.2 mi West 8.1 mph - N/A   Clear